This demonstration page uses our WeatherBlox Daily Observations layout. Learn more.

Left ArrowRight Arrow

41.86663, -103.66717

Hourly Observations for June 25, 2016

Temp ( °F °C ) Dew Point ( °F °C ) Humidity (%) Winds ( mph kmh ) Pressure ( in mb ) Visibility ( mi km ) Precip ( " mm )
12:53 am 00:53 Clear 67 19.4 55 12.8 66 66 NNW 7 11 29.73 1007 10 16 0.00 0.00
1:53 am 01:53 Clear 70 21.1 51 10.6 51 51 S 7 11 29.70 1006 10 16 0.00 0.00
2:53 am 02:53 Clear 70 21.1 52 11.1 53 53 WNW 12 19 29.73 1007 10 16 0.00 0.00
3:53 am 03:53 Clear 68 20 48 8.9 49 49 WNW 13 20 29.77 1008 10 16 0.00 0.00
4:53 am 04:53 Clear 65 18.3 48 8.9 54 54 WNW 16 26 29.80 1009 10 16 0.00 0.03
5:53 am 05:53 Sunny 61 16.1 48 8.9 63 63 NW 17 28 29.86 1011 10 16 0.00 0.00
6:53 am 06:53 Sunny 59 15 47 8.3 64 64 WNW 10 17 29.90 1013 8 13 0.00 0.00
7:53 am 07:53 Sunny 61 16.1 47 8.3 60 60 SW 3 6 29.95 1014 10 16 0.00 0.00
8:53 am 08:53 Sunny 69 20.6 48 8.9 47 47 WNW 10 17 29.94 1014 10 16 0.00 0.00
9:53 am 09:53 Sunny 72 22.2 49 9.4 44 44 WNW 12 19 29.93 1013 10 16 0.00 0.00
10:00 am 10:00 Mostly Sunny 72 22 48 9 44 44 NW 6 9 29.85 1011 10 16 0.00 0.00
10:53 am 10:53 Sunny 76 24.4 49 9.4 39 39 WNW 8 13 29.94 1014 10 16 0.00 0.00
11:53 am 11:53 Sunny 81 27.2 45 7.2 28 28 W 6 9 29.92 1013 8 13 0.00 0.00
12:53 pm 12:53 Sunny 84 28.9 46 7.8 27 27 W 12 19 29.91 1013 10 16 0.00 0.00
1:53 pm 13:53 Sunny 85 29.4 41 5 21 21 WNW 7 11 29.89 1012 10 16 0.00 0.00
2:53 pm 14:53 Sunny 87 30.6 40 4.4 19 19 W 12 19 29.89 1012 10 16 0.00 0.00
3:53 pm 15:53 Sunny 88 31.1 39 3.9 18 18 WNW 9 15 29.89 1012 10 16 0.00 0.00
4:53 pm 16:53 Sunny 88 31.1 37 2.8 16 16 NW 8 13 29.90 1012 10 16 0.00 0.00
5:53 pm 17:53 Sunny 88 31.1 32 0 13 13 NW 5 7 29.89 1012 10 16 0.00 0.00
6:53 pm 18:53 Sunny 88 31.1 29 -1.7 12 12 N 5 7 29.90 1013 10 16 0.00 0.00
7:53 pm 19:53 Sunny 82 27.8 42 5.6 24 24 NE 3 6 29.92 1013 10 16 0.00 0.00
8:53 pm 20:53 Clear 73 22.8 41 5 32 32 ENE 10 17 29.96 1015 10 16 0.00 0.00
9:53 pm 21:53 Clear 68 20 40 4.4 36 36 ENE 9 15 29.98 1015 10 16 0.00 0.00
10:53 pm 22:53 Clear 65 18.3 41 5 42 42 ESE 6 9 30.01 1016 10 16 0.00 0.00
11:53 pm 23:53 Clear 63 17.2 44 6.7 50 50 ESE 7 11 30.03 1017 10 16 0.00 0.00

Powered by AerisWeather